Location: Carthage
(33.8834°N, 106.6595°W)
Time: 10:35:19
(UTC+00:00)

Cosmos 1869 - Pass Details

Date: 13 February 2026
Orbit: 447 x 472 km, 82.5° (Epoch: 10 March)

Event Time Altitude Azimuth Distance (km) Brightness Sun altitude
Rises 12:59:59 0° 190° (S) 2,502 6.7 -11.6°
Reaches altitude 10° 13:02:05 10° 193° (SSW) 1,625 5.7 -11.2°
Maximum altitude 13:05:36 68° 276° (W) 507 2.9 -10.4°
Drops below altitude 10° 13:09:08 10° 1° (N) 1,621 5.6 -9.7°
Sets 13:11:13 0° 4° (N) 2,495 6.6 -9.3°
